Startpagina
METAR-TAF:

METAR-TAF

Vliegvelden :

Paso de los Libres, Argentinië

breedte: 29-41S, lengte: 057-09W, hoogte: 69 m

Actueel weer

Dit bericht is 1 uur en het 13 minuten geleden gemaakt, om 09:00 UTC
Wind 3 kt uit het noorden
Temperatuur 23°C
Vochtigheid 94%
Druk 1002 hPa
Zicht 10 km of meer
Weinig wolken op 800 ft
Geheel bewolkt op 10000 ft

METAR: SARL 270900Z 36003KT 9999 FEW008 OVC100 23/22 Q1002

Tijdstip: 07:13 (10:13 UTC)


TAF: ontbreekt

Waarnemingen en weersverwachtingen van meer dan 4000 vliegvelden (METAR en TAF).

De beschikbare stations zijn de gele en rode punten op de kaart.

Ga met uw muis naar het station om de naam te zien.

Klik dan om waarnemingen en weersverwachtingen te zien.

kaart wijzigen: klik op de groene knoppen met een zwart kruis om in te zoomen, op de groene knop met een streepje om uit te zoomen of op de groene pijlen voor aangrenzende kaarten.


METAR-TAF: